{"data":{"norad_id":62135,"epoch":"2026-09-21T21:49:59.203200Z","epoch_age_seconds":60485,"freshness":"FRESH","line1":"1 62135U 24222X   26264.90971300  .00009977  00000+0  37158-3 0  9996","line2":"2 62135  43.0020 108.4290 0001332 294.0933  65.9779 15.27580061102800","mean_motion":15.27580061,"eccentricity":0.0001332,"inclination_deg":43.002,"raan_deg":108.429,"arg_perigee_deg":294.0933,"mean_anomaly_deg":65.9779,"bstar":0.00037158,"rev_number":10280,"period_min":94.26674494935,"perigee_km":482.13500342005,"apogee_km":483.96282334738,"semimajor_km":6861.1859133837,"source":"CELESTRAK","updated_at":"2026-09-22T09:00:49.528136Z"}}